STARLINK-35902, 66626

Orbit data source: Space-Track

STARLINK-35902, 66626 is a payload satellite owned by SpaceX/Seattle (US) in LEO that was launched on Sun, 23 Nov 2025 UTC via an FALCON 9 launch vehicle from the Air Force Western Test Range (AFWTR). Payload-class satellites include a variety of spacecraft equipped with specific instruments for various scientific and technological missions. These include communications satellites like Starlink; space stations such as the ISS; scientific satellites like the Hubble; Earth observation satellites from companies like Planet Labs, Umbra, and HawkEye 360; GPS; miniature CubeSats for education and research; and military/defense satellites.

Loading next visibility...
Identifier
66626, 2025-271K
Orbit
LEO
Country
Flag of USUS
Related business
Manufacturer
SpaceX/Seattle
Mission
Operational Commercial Communications
Bus & Motor
STARLINK V2MO, Unknown motor
Mass
575 kg wet, ~530 kg dry
Launch date (UTC)
2025-11-23 (7 months ago)
Launch vehicle
FALCON 9
Launch site
Air Force Western Test Range (AFWTR)
Object type
Payload
Rocket body
Debris
Shape & HBR
Box + 2 Pan, 17.7 m
Radar Cross Section
36.964 m², Large (>1 m²)

Expand to show TLE details & history
Last TLE update: 3 days ago

TLE from 3 days ago
0 STARLINK-35902
1 66626U 25271K   26170.97757374  .00013151  00000-0  45520-3 0  9998
2 66626  53.1605  25.0854 0001266  89.0509 271.0637 15.30211044 33225
Epoch: 2026-06-19T23:27Z
TLE epoch observation values (Epoch: 2026-06-19T23:27:42.371Z)
Latitude
0.00001°
Longitude
124.96006°
Altitude
476.066 km
Speed
7.629 km/s
True Right ascension
01h 40m 20s
True Declination
0° 00' 00"
Sunlit
Object was in daylight at epoch
Visualization orbit readout
Latitude
Unknown
Longitude
Unknown
Altitude
Unknown
Speed
Unknown
Apparent Right ascension
Unknown
Apparent Declination
Unknown
Sunlit
N/A
Visualization observer readout
Local Sidereal Time
07:32:29
Azimuth
Unknown
Elevation
Unknown
Doppler factor
Unknown
Orbital elements
Apogee altitude
476.306 km
Perigee altitude
474.571 km
Semi-major axis
6,853.575 km
Eccentricity
0.00013
Inclination
53.1605°
RAAN
25.0854°
Arg. of periapsis
89.0509°
True anomaly
271.0492°
Mean anomaly
271.0637°
Eccentric anomaly
271.05645°
Mean motion
3.82532 °/min
Orbital period
94.11 mins
BSTAR
0.0004552
Loading maneuver chart data...
Computing Atmospheric mass density...
Loading historical data...
Loading historical data...
Loading historical data...
Loading historical data...
Loading historical data...
Loading historical data...
Loading historical data...

Documentation

Showing up to 5 results
|